Time,TemperatureF,DewpointF,PressureIn,WindDirection,WindDirectionDegrees,WindSpeedMPH,WindSpeedGustMPH,Humidity,HourlyPrecipIn,Conditions,Clouds,dailyrainin,SoftwareType,DateUTC
2013-05-12 00:02:00,43.0,30.0,30.07,NW,322,9.0,17.0,60,0.00,,,0.00,,2013-05-12 05:02:00,
2013-05-12 00:11:00,43.0,30.0,30.07,NW,322,9.0,17.0,60,0.00,,,0.00,,2013-05-12 05:11:00,
2013-05-12 00:22:00,43.0,30.0,30.07,NNW,344,9.0,16.0,61,0.00,,,0.00,,2013-05-12 05:22:00,
2013-05-12 00:32:00,43.0,30.0,30.08,NW,318,7.0,14.0,61,0.00,,,0.00,,2013-05-12 05:32:00,
2013-05-12 00:42:00,43.0,30.0,30.08,NW,318,7.0,14.0,61,0.00,,,0.00,,2013-05-12 05:42:00,
2013-05-12 00:52:00,41.0,31.0,30.08,NW,313,7.0,24.0,68,0.00,,,0.00,,2013-05-12 05:52:00,
2013-05-12 01:01:00,41.0,31.0,30.08,North,360,9.0,17.0,66,0.00,,,0.00,,2013-05-12 06:01:00,
2013-05-12 01:11:00,41.0,31.0,30.08,North,360,9.0,17.0,66,0.00,,,0.00,,2013-05-12 06:11:00,
2013-05-12 01:21:00,41.0,31.0,30.08,NNW,338,8.0,17.0,67,0.00,,,0.00,,2013-05-12 06:21:00,
2013-05-12 01:32:00,41.0,31.0,30.08,NW,319,9.0,17.0,68,0.00,,,0.00,,2013-05-12 06:32:00,
2013-05-12 01:42:00,40.0,30.0,30.07,WNW,300,7.0,14.0,68,0.00,,,0.00,,2013-05-12 06:42:00,
2013-05-12 01:52:00,40.0,30.0,30.07,WNW,300,7.0,14.0,68,0.00,,,0.00,,2013-05-12 06:52:00,
2013-05-12 02:01:00,40.0,31.0,30.08,NW,323,7.0,14.0,69,0.00,,,0.00,,2013-05-12 07:01:00,
2013-05-12 02:11:00,40.0,31.0,30.08,NW,323,7.0,14.0,69,0.00,,,0.00,,2013-05-12 07:11:00,
2013-05-12 02:21:00,40.0,31.0,30.07,North,355,8.0,14.0,70,0.00,,,0.00,,2013-05-12 07:21:00,
2013-05-12 02:32:00,40.0,31.0,30.08,NW,311,11.0,18.0,69,0.00,,,0.00,,2013-05-12 07:32:00,
2013-05-12 02:42:00,40.0,31.0,30.08,NW,311,11.0,18.0,69,0.00,,,0.00,,2013-05-12 07:42:00,
2013-05-12 02:52:00,39.0,30.0,30.08,NNW,337,11.0,21.0,69,0.00,,,0.00,,2013-05-12 07:52:00,
2013-05-12 03:02:00,39.0,30.0,30.08,NW,309,8.0,14.0,71,0.00,,,0.00,,2013-05-12 08:02:00,
2013-05-12 03:11:00,39.0,30.0,30.08,NW,309,8.0,14.0,71,0.00,,,0.00,,2013-05-12 08:11:00,
2013-05-12 03:21:00,38.0,29.0,30.08,NNW,333,8.0,21.0,70,0.00,,,0.00,,2013-05-12 08:21:00,
2013-05-12 03:32:00,38.0,29.0,30.08,NW,313,11.0,20.0,69,0.00,,,0.00,,2013-05-12 08:32:00,
2013-05-12 03:41:00,38.0,29.0,30.08,NW,313,11.0,20.0,69,0.00,,,0.00,,2013-05-12 08:41:00,
2013-05-12 03:53:00,38.0,28.0,30.08,NNW,345,11.0,19.0,68,0.00,,,0.00,,2013-05-12 08:53:00,
2013-05-12 04:01:00,38.0,27.0,30.08,NW,321,14.0,22.0,65,0.00,,,0.00,,2013-05-12 09:01:00,
2013-05-12 04:11:00,38.0,27.0,30.08,NW,321,14.0,22.0,65,0.00,,,0.00,,2013-05-12 09:11:00,
2013-05-12 04:21:00,38.0,27.0,30.08,NNW,338,10.0,22.0,65,0.00,,,0.00,,2013-05-12 09:21:00,
2013-05-12 04:33:00,37.0,27.0,30.08,NNW,340,10.0,18.0,66,0.00,,,0.00,,2013-05-12 09:33:00,
2013-05-12 04:42:00,37.0,27.0,30.08,NNW,340,10.0,18.0,66,0.00,,,0.00,,2013-05-12 09:42:00,
2013-05-12 04:53:00,37.0,27.0,30.09,NW,325,9.0,17.0,67,0.00,,,0.00,,2013-05-12 09:53:00,
2013-05-12 05:03:00,37.0,27.0,30.09,NW,312,8.0,18.0,67,0.00,,,0.00,,2013-05-12 10:03:00,
2013-05-12 05:12:00,37.0,27.0,30.09,NW,312,8.0,18.0,67,0.00,,,0.00,,2013-05-12 10:12:00,
2013-05-12 05:22:00,37.0,27.0,30.09,NNW,327,13.0,21.0,66,0.00,,,0.00,,2013-05-12 10:22:00,
2013-05-12 05:33:00,37.0,27.0,30.09,NNW,342,8.0,18.0,67,0.00,,,0.00,,2013-05-12 10:33:00,
2013-05-12 05:42:00,37.0,27.0,30.09,NNW,342,8.0,18.0,67,0.00,,,0.00,,2013-05-12 10:42:00,
2013-05-12 05:52:00,36.0,26.0,30.10,NNW,342,8.0,14.0,67,0.00,,,0.00,,2013-05-12 10:52:00,
2013-05-12 06:02:00,36.0,27.0,30.10,NNW,334,6.0,14.0,69,0.00,,,0.00,,2013-05-12 11:02:00,
2013-05-12 06:12:00,36.0,27.0,30.10,NNW,334,6.0,14.0,69,0.00,,,0.00,,2013-05-12 11:12:00,
2013-05-12 06:22:00,36.0,26.0,30.11,NNW,339,10.0,20.0,68,0.00,,,0.00,,2013-05-12 11:22:00,
2013-05-12 06:32:00,36.0,26.0,30.11,WNW,298,11.0,22.0,67,0.00,,,0.00,,2013-05-12 11:32:00,
2013-05-12 06:42:00,36.0,26.0,30.11,NNW,328,9.0,19.0,67,0.00,,,0.00,,2013-05-12 11:42:00,
2013-05-12 06:52:00,36.0,26.0,30.11,NNW,328,9.0,19.0,67,0.00,,,0.00,,2013-05-12 11:52:00,
2013-05-12 07:01:00,37.0,27.0,30.12,NNW,348,9.0,17.0,67,0.00,,,0.00,,2013-05-12 12:01:00,
2013-05-12 07:11:00,37.0,27.0,30.12,NW,309,11.0,21.0,66,0.00,,,0.00,,2013-05-12 12:11:00,
2013-05-12 07:21:00,37.0,27.0,30.12,NW,309,11.0,21.0,66,0.00,,,0.00,,2013-05-12 12:21:00,
2013-05-12 07:32:00,37.0,27.0,30.12,WNW,296,11.0,22.0,66,0.00,,,0.00,,2013-05-12 12:32:00,
2013-05-12 07:41:00,37.0,27.0,30.12,WNW,296,11.0,22.0,66,0.00,,,0.00,,2013-05-12 12:41:00,
2013-05-12 07:52:00,37.0,26.0,30.12,NNW,338,10.0,22.0,65,0.00,,,0.00,,2013-05-12 12:52:00,
2013-05-12 08:01:00,38.0,27.0,30.12,NNW,337,13.0,23.0,64,0.00,,,0.00,,2013-05-12 13:01:00,
2013-05-12 08:11:00,38.0,27.0,30.12,NNW,337,13.0,23.0,64,0.00,,,0.00,,2013-05-12 13:11:00,
2013-05-12 08:21:00,37.0,26.0,30.12,NE,34,12.0,20.0,63,0.00,,,0.00,,2013-05-12 13:21:00,
2013-05-12 08:32:00,38.0,26.0,30.13,NNW,327,11.0,20.0,62,0.00,,,0.00,,2013-05-12 13:32:00,
2013-05-12 08:41:00,38.0,26.0,30.13,NNW,327,11.0,20.0,62,0.00,,,0.00,,2013-05-12 13:41:00,
2013-05-12 08:52:00,38.0,27.0,30.13,NNW,336,8.0,19.0,63,0.00,,,0.00,,2013-05-12 13:52:00,
2013-05-12 09:01:00,39.0,27.0,30.14,North,350,11.0,17.0,61,0.00,,,0.00,,2013-05-12 14:01:00,
2013-05-12 09:11:00,39.0,27.0,30.14,North,350,11.0,17.0,61,0.00,,,0.00,,2013-05-12 14:11:00,
2013-05-12 09:21:00,40.0,28.0,30.14,NW,320,8.0,19.0,62,0.00,,,0.00,,2013-05-12 14:21:00,
2013-05-12 09:31:00,40.0,28.0,30.14,NW,325,9.0,18.0,62,0.00,,,0.00,,2013-05-12 14:31:00,
2013-05-12 09:42:00,40.0,28.0,30.14,NW,306,9.0,19.0,61,0.00,,,0.00,,2013-05-12 14:42:00,
2013-05-12 09:52:00,40.0,28.0,30.14,NW,306,9.0,19.0,61,0.00,,,0.00,,2013-05-12 14:52:00,
2013-05-12 10:01:00,41.0,28.0,30.14,WNW,286,10.0,20.0,60,0.00,,,0.00,,2013-05-12 15:01:00,
2013-05-12 10:11:00,41.0,28.0,30.14,WNW,286,10.0,20.0,60,0.00,,,0.00,,2013-05-12 15:11:00,
2013-05-12 10:21:00,41.0,28.0,30.14,NW,306,10.0,21.0,60,0.00,,,0.00,,2013-05-12 15:21:00,
2013-05-12 10:34:00,42.0,29.0,30.14,WNW,294,9.0,18.0,59,0.00,,,0.00,,2013-05-12 15:34:00,
2013-05-12 10:42:00,42.0,29.0,30.14,WNW,294,9.0,18.0,59,0.00,,,0.00,,2013-05-12 15:42:00,
2013-05-12 10:53:00,42.0,28.0,30.15,NW,314,11.0,19.0,58,0.00,,,0.00,,2013-05-12 15:53:00,
2013-05-12 11:02:00,42.0,27.0,30.15,NW,319,11.0,19.0,55,0.00,,,0.00,,2013-05-12 16:02:00,
2013-05-12 11:12:00,42.0,27.0,30.15,NW,319,11.0,19.0,55,0.00,,,0.00,,2013-05-12 16:12:00,
2013-05-12 11:23:00,43.0,28.0,30.15,WNW,301,9.0,18.0,55,0.00,,,0.00,,2013-05-12 16:23:00,
2013-05-12 11:32:00,43.0,27.0,30.16,NW,309,10.0,18.0,53,0.00,,,0.00,,2013-05-12 16:32:00,
2013-05-12 11:42:00,43.0,27.0,30.16,NW,309,10.0,18.0,53,0.00,,,0.00,,2013-05-12 16:42:00,
2013-05-12 11:52:00,42.0,26.0,30.16,NW,306,13.0,20.0,52,0.00,,,0.00,,2013-05-12 16:52:00,
2013-05-12 12:02:00,43.0,28.0,30.15,NW,313,8.0,20.0,54,0.00,,,0.00,,2013-05-12 17:02:00,
2013-05-12 12:12:00,45.0,27.0,30.15,NW,325,14.0,22.0,50,0.00,,,0.00,,2013-05-12 17:12:00,
2013-05-12 12:22:00,45.0,27.0,30.15,NW,325,14.0,22.0,50,0.00,,,0.00,,2013-05-12 17:22:00,
2013-05-12 12:32:00,45.0,27.0,30.15,North,349,11.0,23.0,48,0.00,,,0.00,,2013-05-12 17:32:00,
2013-05-12 12:42:00,45.0,26.0,30.15,NNW,334,13.0,18.0,47,0.00,,,0.00,,2013-05-12 17:42:00,
2013-05-12 12:52:00,45.0,26.0,30.15,NNW,334,13.0,18.0,47,0.00,,,0.00,,2013-05-12 17:52:00,
2013-05-12 13:01:00,45.0,27.0,30.15,NW,310,10.0,21.0,48,0.00,,,0.00,,2013-05-12 18:01:00,
2013-05-12 13:12:00,45.0,27.0,30.15,NW,310,10.0,21.0,48,0.00,,,0.00,,2013-05-12 18:12:00,
2013-05-12 13:22:00,46.0,26.0,30.15,NW,307,10.0,19.0,46,0.00,,,0.00,,2013-05-12 18:22:00,
2013-05-12 13:32:00,46.0,26.0,30.15,NNW,329,12.0,19.0,45,0.00,,,0.00,,2013-05-12 18:32:00,
2013-05-12 13:42:00,46.0,26.0,30.15,NNW,329,12.0,19.0,45,0.00,,,0.00,,2013-05-12 18:42:00,
2013-05-12 13:52:00,47.0,28.0,30.15,WNW,301,10.0,19.0,47,0.00,,,0.00,,2013-05-12 18:52:00,
2013-05-12 14:01:00,47.0,27.0,30.15,NNW,341,11.0,19.0,45,0.00,,,0.00,,2013-05-12 19:01:00,
2013-05-12 14:11:00,47.0,27.0,30.15,NNW,341,11.0,19.0,45,0.00,,,0.00,,2013-05-12 19:11:00,
2013-05-12 14:21:00,47.0,26.0,30.14,NW,311,11.0,17.0,43,0.00,,,0.00,,2013-05-12 19:21:00,
2013-05-12 14:32:00,47.0,26.0,30.14,NW,325,10.0,17.0,43,0.00,,,0.00,,2013-05-12 19:32:00,
2013-05-12 14:42:00,48.0,25.0,30.14,NNW,335,10.0,16.0,41,0.00,,,0.00,,2013-05-12 19:42:00,
2013-05-12 14:52:00,48.0,25.0,30.14,NNW,335,10.0,16.0,41,0.00,,,0.00,,2013-05-12 19:52:00,
2013-05-12 15:02:00,49.0,26.0,30.14,North,9,9.0,17.0,41,0.00,,,0.00,,2013-05-12 20:02:00,
2013-05-12 15:11:00,50.0,25.0,30.13,NNW,330,9.0,14.0,38,0.00,,,0.00,,2013-05-12 20:11:00,
2013-05-12 15:21:00,50.0,25.0,30.13,NNW,330,9.0,14.0,38,0.00,,,0.00,,2013-05-12 20:21:00,
2013-05-12 15:32:00,50.0,27.0,30.13,NW,324,9.0,17.0,40,0.00,,,0.00,,2013-05-12 20:32:00,
2013-05-12 15:42:00,50.0,27.0,30.13,NW,324,9.0,17.0,40,0.00,,,0.00,,2013-05-12 20:42:00,
2013-05-12 15:52:00,49.0,25.0,30.13,WNW,287,10.0,20.0,38,0.00,,,0.00,,2013-05-12 20:52:00,
2013-05-12 16:01:00,50.0,25.0,30.13,WNW,302,6.0,13.0,38,0.00,,,0.00,,2013-05-12 21:01:00,
2013-05-12 16:11:00,50.0,26.0,30.12,NW,308,6.0,15.0,39,0.00,,,0.00,,2013-05-12 21:11:00,
2013-05-12 16:21:00,50.0,26.0,30.12,NW,308,6.0,15.0,39,0.00,,,0.00,,2013-05-12 21:21:00,
2013-05-12 16:33:00,49.0,24.0,30.13,West,281,9.0,17.0,37,0.00,,,0.00,,2013-05-12 21:33:00,
2013-05-12 16:42:00,49.0,24.0,30.13,West,281,9.0,17.0,37,0.00,,,0.00,,2013-05-12 21:42:00,
2013-05-12 16:53:00,49.0,25.0,30.12,WNW,289,7.0,13.0,39,0.00,,,0.00,,2013-05-12 21:53:00,
2013-05-12 17:02:00,50.0,25.0,30.11,West,280,9.0,15.0,37,0.00,,,0.00,,2013-05-12 22:02:00,
2013-05-12 17:12:00,50.0,25.0,30.12,WNW,297,8.0,17.0,37,0.00,,,0.00,,2013-05-12 22:12:00,
2013-05-12 17:23:00,50.0,25.0,30.12,WNW,297,8.0,17.0,37,0.00,,,0.00,,2013-05-12 22:23:00,
2013-05-12 17:32:00,50.0,25.0,30.12,NNE,16,6.0,12.0,38,0.00,,,0.00,,2013-05-12 22:32:00,
2013-05-12 17:42:00,50.0,25.0,30.12,NNE,16,6.0,12.0,38,0.00,,,0.00,,2013-05-12 22:42:00,
2013-05-12 17:52:00,51.0,25.0,30.11,North,355,6.0,16.0,36,0.00,,,0.00,,2013-05-12 22:52:00,
2013-05-12 18:02:00,50.0,24.0,30.11,NW,304,8.0,15.0,36,0.00,,,0.00,,2013-05-12 23:02:00,
2013-05-12 18:12:00,51.0,25.0,30.11,NNW,330,4.0,13.0,36,0.00,,,0.00,,2013-05-12 23:12:00,
2013-05-12 18:22:00,51.0,25.0,30.11,NNW,330,4.0,13.0,36,0.00,,,0.00,,2013-05-12 23:22:00,
2013-05-12 18:32:00,51.0,24.0,30.11,NW,317,8.0,13.0,34,0.00,,,0.00,,2013-05-12 23:32:00,
2013-05-12 18:42:00,51.0,24.0,30.11,NW,317,8.0,13.0,34,0.00,,,0.00,,2013-05-12 23:42:00,
2013-05-12 18:52:00,50.0,23.0,30.11,NW,309,9.0,15.0,34,0.00,,,0.00,,2013-05-12 23:52:00,
2013-05-12 19:01:00,50.0,23.0,30.11,NNW,335,9.0,14.0,35,0.00,,,0.00,,2013-05-13 00:01:00,
2013-05-12 19:11:00,50.0,23.0,30.11,NNW,335,9.0,14.0,35,0.00,,,0.00,,2013-05-13 00:11:00,
2013-05-12 19:21:00,50.0,24.0,30.11,North,5,5.0,11.0,36,0.00,,,0.00,,2013-05-13 00:21:00,
2013-05-12 19:32:00,50.0,23.0,30.11,NNW,331,6.0,10.0,35,0.00,,,0.00,,2013-05-13 00:32:00,
2013-05-12 19:42:00,50.0,24.0,30.11,NNW,346,4.0,9.0,36,0.00,,,0.00,,2013-05-13 00:42:00,
2013-05-12 19:52:00,50.0,24.0,30.11,NNW,346,4.0,9.0,36,0.00,,,0.00,,2013-05-13 00:52:00,
2013-05-12 20:01:00,50.0,25.0,30.11,North,5,5.0,7.0,37,0.00,,,0.00,,2013-05-13 01:01:00,
2013-05-12 20:11:00,50.0,25.0,30.11,North,5,5.0,7.0,37,0.00,,,0.00,,2013-05-13 01:11:00,
2013-05-12 20:22:00,49.0,25.0,30.11,North,360,3.0,7.0,38,0.00,,,0.00,,2013-05-13 01:22:00,
2013-05-12 20:31:00,49.0,25.0,30.11,NE,35,2.0,4.0,39,0.00,,,0.00,,2013-05-13 01:31:00,
2013-05-12 20:41:00,49.0,25.0,30.11,NE,35,2.0,4.0,39,0.00,,,0.00,,2013-05-13 01:41:00,
2013-05-12 20:52:00,48.0,25.0,30.12,NNE,29,2.0,4.0,40,0.00,,,0.00,,2013-05-13 01:52:00,
2013-05-12 21:01:00,48.0,25.0,30.13,North,5,2.0,4.0,40,0.00,,,0.00,,2013-05-13 02:01:00,
2013-05-12 21:11:00,48.0,25.0,30.13,North,5,2.0,4.0,40,0.00,,,0.00,,2013-05-13 02:11:00,
2013-05-12 21:21:00,48.0,25.0,30.13,North,355,2.0,3.0,41,0.00,,,0.00,,2013-05-13 02:21:00,
2013-05-12 21:31:00,48.0,25.0,30.13,WNW,298,2.0,3.0,41,0.00,,,0.00,,2013-05-13 02:31:00,
2013-05-12 21:41:00,48.0,25.0,30.13,WNW,298,2.0,3.0,41,0.00,,,0.00,,2013-05-13 02:41:00,
2013-05-12 21:52:00,48.0,26.0,30.13,West,279,3.0,4.0,42,0.00,,,0.00,,2013-05-13 02:52:00,
2013-05-12 22:01:00,47.0,26.0,30.14,WNW,296,4.0,5.0,43,0.00,,,0.00,,2013-05-13 03:01:00,
2013-05-12 22:11:00,47.0,26.0,30.14,WNW,296,4.0,5.0,43,0.00,,,0.00,,2013-05-13 03:11:00,
2013-05-12 22:21:00,47.0,26.0,30.14,West,274,4.0,5.0,43,0.00,,,0.00,,2013-05-13 03:21:00,
2013-05-12 22:32:00,47.0,27.0,30.14,WNW,284,3.0,5.0,45,0.00,,,0.00,,2013-05-13 03:32:00,
2013-05-12 22:42:00,47.0,27.0,30.14,WNW,284,3.0,5.0,45,0.00,,,0.00,,2013-05-13 03:42:00,
2013-05-12 22:53:00,46.0,28.0,30.14,ENE,62,5.0,9.0,49,0.00,,,0.00,,2013-05-13 03:53:00,
2013-05-12 23:02:00,45.0,27.0,30.14,NNE,25,3.0,5.0,48,0.00,,,0.00,,2013-05-13 04:02:00,
2013-05-12 23:12:00,45.0,27.0,30.14,NNE,25,3.0,5.0,48,0.00,,,0.00,,2013-05-13 04:12:00,
2013-05-12 23:23:00,45.0,28.0,30.14,NE,49,3.0,5.0,51,0.00,,,0.00,,2013-05-13 04:23:00,
2013-05-12 23:32:00,42.0,31.0,30.15,NE,51,5.0,9.0,64,0.00,,,0.00,,2013-05-13 04:32:00,
2013-05-12 23:42:00,42.0,31.0,30.15,NE,51,5.0,9.0,64,0.00,,,0.00,,2013-05-13 04:42:00,
2013-05-12 23:52:00,40.0,31.0,30.16,East,96,4.0,11.0,71,0.00,,,0.00,,2013-05-13 04:52:00,